Time,TemperatureF,DewpointF,PressureIn,WindDirection,WindDirectionDegrees,WindSpeedMPH,WindSpeedGustMPH,Humidity,HourlyPrecipIn,Conditions,Clouds,dailyrainin,SolarRadiationWatts/m^2,SoftwareType,DateUTC
2013-10-31 00:21:00,36.0,23.0,-100.00,WNW,302,2.0,6.0,59,0.00,,,0.00,0.000000,,2013-10-31 07:21:00,
2013-10-31 00:32:00,36.0,23.0,-100.00,WNW,302,2.0,6.0,59,0.00,,,0.00,0.000000,,2013-10-31 07:32:00,
2013-10-31 00:42:00,36.0,23.0,-100.00,WNW,302,2.0,6.0,59,0.00,,,0.00,0.000000,,2013-10-31 07:42:00,
2013-10-31 00:52:00,36.0,23.0,-100.00,WNW,302,2.0,6.0,59,0.00,,,0.00,0.000000,,2013-10-31 07:52:00,
2013-10-31 01:22:00,38.0,24.0,-100.00,ENE,65,6.0,8.0,57,0.00,,,0.00,0.000000,,2013-10-31 08:22:00,
2013-10-31 01:32:00,38.0,24.0,-100.00,ENE,65,6.0,8.0,57,0.00,,,0.00,0.000000,,2013-10-31 08:32:00,
2013-10-31 01:42:00,38.0,24.0,-100.00,ENE,65,6.0,8.0,57,0.00,,,0.00,0.000000,,2013-10-31 08:42:00,
2013-10-31 01:52:00,38.0,24.0,-100.00,ENE,65,6.0,8.0,57,0.00,,,0.00,0.000000,,2013-10-31 08:52:00,
2013-10-31 02:21:00,35.0,25.0,-100.00,NE,41,5.0,9.0,66,0.00,,,0.00,0.000000,,2013-10-31 09:21:00,
2013-10-31 02:33:00,35.0,25.0,-100.00,NE,41,5.0,9.0,66,0.00,,,0.00,0.000000,,2013-10-31 09:33:00,
2013-10-31 02:43:00,35.0,25.0,-100.00,NE,41,5.0,9.0,66,0.00,,,0.00,0.000000,,2013-10-31 09:43:00,
2013-10-31 02:53:00,35.0,25.0,-100.00,NE,41,5.0,9.0,66,0.00,,,0.00,0.000000,,2013-10-31 09:53:00,
2013-10-31 03:23:00,34.0,23.0,-100.00,NNE,15,9.0,11.0,65,0.00,,,0.00,0.000000,,2013-10-31 10:23:00,
2013-10-31 03:33:00,34.0,23.0,-100.00,NNE,15,9.0,11.0,65,0.00,,,0.00,0.000000,,2013-10-31 10:33:00,
2013-10-31 03:42:00,34.0,23.0,-100.00,NNE,15,9.0,11.0,65,0.00,,,0.00,0.000000,,2013-10-31 10:42:00,
2013-10-31 03:53:00,34.0,23.0,-100.00,NNE,15,9.0,11.0,65,0.00,,,0.00,0.000000,,2013-10-31 10:53:00,
2013-10-31 04:21:00,36.0,25.0,-100.00,North,359,5.0,9.0,65,0.00,,,0.00,0.000000,,2013-10-31 11:21:00,
2013-10-31 04:33:00,36.0,25.0,-100.00,North,359,5.0,9.0,65,0.00,,,0.00,0.000000,,2013-10-31 11:33:00,
2013-10-31 04:42:00,36.0,25.0,-100.00,North,359,5.0,9.0,65,0.00,,,0.00,0.000000,,2013-10-31 11:42:00,
2013-10-31 04:52:00,36.0,25.0,-100.00,North,359,5.0,9.0,65,0.00,,,0.00,0.000000,,2013-10-31 11:52:00,
2013-10-31 05:21:00,36.0,28.0,-100.00,NNE,30,4.0,10.0,73,0.00,,,0.00,0.000000,,2013-10-31 12:21:00,
2013-10-31 05:32:00,36.0,28.0,-100.00,NNE,30,4.0,10.0,73,0.00,,,0.00,0.000000,,2013-10-31 12:32:00,
2013-10-31 05:42:00,36.0,28.0,-100.00,NNE,30,4.0,10.0,73,0.00,,,0.00,0.000000,,2013-10-31 12:42:00,
2013-10-31 05:52:00,36.0,28.0,-100.00,NNE,30,4.0,10.0,73,0.00,,,0.00,0.000000,,2013-10-31 12:52:00,
2013-10-31 06:22:00,36.0,29.0,-100.00,ENE,66,3.0,9.0,76,0.00,,,0.00,0.000000,,2013-10-31 13:22:00,
2013-10-31 06:32:00,36.0,29.0,-100.00,ENE,66,3.0,9.0,76,0.00,,,0.00,0.000000,,2013-10-31 13:32:00,
2013-10-31 06:42:00,36.0,29.0,-100.00,ENE,66,3.0,9.0,76,0.00,,,0.00,0.000000,,2013-10-31 13:42:00,
2013-10-31 06:52:00,36.0,29.0,-100.00,ENE,66,3.0,9.0,76,0.00,,,0.00,0.000000,,2013-10-31 13:52:00,
2013-10-31 07:21:00,37.0,28.0,-100.00,East,92,3.0,7.0,71,0.00,,,0.00,0.000000,,2013-10-31 14:21:00,
2013-10-31 07:32:00,37.0,28.0,-100.00,East,92,3.0,7.0,71,0.00,,,0.00,0.000000,,2013-10-31 14:32:00,
2013-10-31 07:42:00,37.0,28.0,-100.00,East,92,3.0,7.0,71,0.00,,,0.00,0.000000,,2013-10-31 14:42:00,
2013-10-31 07:52:00,37.0,28.0,-100.00,East,92,3.0,7.0,71,0.00,,,0.00,0.000000,,2013-10-31 14:52:00,
2013-10-31 09:22:00,38.0,32.0,-100.00,ENE,70,5.0,7.0,80,-99.99,,,-99.99,38.000000,,2013-10-31 16:22:00,
2013-10-31 09:33:00,38.0,32.0,-100.00,ENE,70,5.0,7.0,80,-99.99,,,-99.99,38.000000,,2013-10-31 16:33:00,
2013-10-31 09:43:00,38.0,32.0,-100.00,ENE,70,5.0,7.0,80,-99.99,,,-99.99,38.000000,,2013-10-31 16:43:00,
2013-10-31 09:53:00,38.0,32.0,-100.00,ENE,70,5.0,7.0,80,-99.99,,,-99.99,38.000000,,2013-10-31 16:53:00,
2013-10-31 10:22:00,44.0,33.0,-100.00,SE,140,4.0,6.0,66,0.00,,,-99.99,219.000000,,2013-10-31 17:22:00,
2013-10-31 10:33:00,44.0,33.0,-100.00,SE,140,4.0,6.0,66,0.00,,,-99.99,219.000000,,2013-10-31 17:33:00,
2013-10-31 10:43:00,44.0,33.0,-100.00,SE,140,4.0,6.0,66,0.00,,,-99.99,219.000000,,2013-10-31 17:43:00,
2013-10-31 10:52:00,44.0,33.0,-100.00,SE,140,4.0,6.0,66,0.00,,,-99.99,219.000000,,2013-10-31 17:52:00,
2013-10-31 11:21:00,47.0,33.0,-100.00,West,281,3.0,5.0,57,0.00,,,-99.99,372.000000,,2013-10-31 18:21:00,
2013-10-31 11:32:00,47.0,33.0,-100.00,West,281,3.0,5.0,57,0.00,,,-99.99,372.000000,,2013-10-31 18:32:00,
2013-10-31 11:42:00,47.0,33.0,-100.00,West,281,3.0,5.0,57,0.00,,,-99.99,372.000000,,2013-10-31 18:42:00,
2013-10-31 11:52:00,47.0,33.0,-100.00,West,281,3.0,5.0,57,0.00,,,-99.99,372.000000,,2013-10-31 18:52:00,
2013-10-31 12:21:00,49.0,31.0,-100.00,SW,218,5.0,7.0,50,0.00,,,-99.99,460.000000,,2013-10-31 19:21:00,
2013-10-31 12:32:00,49.0,31.0,-100.00,SW,218,5.0,7.0,50,0.00,,,-99.99,460.000000,,2013-10-31 19:32:00,
2013-10-31 12:42:00,49.0,31.0,-100.00,SW,218,5.0,7.0,50,0.00,,,-99.99,460.000000,,2013-10-31 19:42:00,
2013-10-31 12:52:00,49.0,31.0,-100.00,SW,218,5.0,7.0,50,0.00,,,-99.99,460.000000,,2013-10-31 19:52:00,
2013-10-31 13:22:00,53.0,33.0,-100.00,SW,231,3.0,8.0,46,0.00,,,-99.99,497.000000,,2013-10-31 20:22:00,
2013-10-31 13:32:00,53.0,33.0,-100.00,SW,231,3.0,8.0,46,0.00,,,-99.99,497.000000,,2013-10-31 20:32:00,
2013-10-31 13:42:00,53.0,33.0,-100.00,SW,231,3.0,8.0,46,0.00,,,-99.99,497.000000,,2013-10-31 20:42:00,
2013-10-31 13:52:00,53.0,33.0,-100.00,SW,231,3.0,8.0,46,0.00,,,-99.99,497.000000,,2013-10-31 20:52:00,
2013-10-31 14:21:00,56.0,34.0,-100.00,SW,235,3.0,7.0,43,0.00,,,-99.99,479.000000,,2013-10-31 21:21:00,
2013-10-31 14:33:00,56.0,34.0,-100.00,SW,235,3.0,7.0,43,0.00,,,-99.99,479.000000,,2013-10-31 21:33:00,
2013-10-31 14:43:00,56.0,34.0,-100.00,SW,235,3.0,7.0,43,0.00,,,-99.99,479.000000,,2013-10-31 21:43:00,
2013-10-31 14:54:00,56.0,34.0,-100.00,SW,235,3.0,7.0,43,0.00,,,-99.99,479.000000,,2013-10-31 21:54:00,
2013-10-31 15:24:00,57.0,34.0,-100.00,WNW,282,4.0,8.0,41,0.00,,,-99.99,407.000000,,2013-10-31 22:24:00,
2013-10-31 15:33:00,57.0,34.0,-100.00,WNW,282,4.0,8.0,41,0.00,,,-99.99,407.000000,,2013-10-31 22:33:00,
2013-10-31 15:43:00,57.0,34.0,-100.00,WNW,282,4.0,8.0,41,0.00,,,-99.99,407.000000,,2013-10-31 22:43:00,
2013-10-31 15:53:00,57.0,34.0,-100.00,WNW,282,4.0,8.0,41,0.00,,,-99.99,407.000000,,2013-10-31 22:53:00,
2013-10-31 16:22:00,59.0,35.0,-100.00,WNW,288,2.0,7.0,40,0.00,,,-99.99,292.000000,,2013-10-31 23:22:00,
2013-10-31 16:34:00,59.0,35.0,-100.00,WNW,288,2.0,7.0,40,0.00,,,-99.99,292.000000,,2013-10-31 23:34:00,
2013-10-31 16:43:00,59.0,35.0,-100.00,WNW,288,2.0,7.0,40,0.00,,,-99.99,292.000000,,2013-10-31 23:43:00,
2013-10-31 16:53:00,59.0,35.0,-100.00,WNW,288,2.0,7.0,40,0.00,,,-99.99,292.000000,,2013-10-31 23:53:00,
2013-10-31 17:21:00,58.0,33.0,-100.00,South,178,2.0,4.0,39,0.00,,,-99.99,153.000000,,2013-11-01 00:21:00,
2013-10-31 17:32:00,58.0,33.0,-100.00,South,178,2.0,4.0,39,0.00,,,-99.99,153.000000,,2013-11-01 00:32:00,
2013-10-31 17:42:00,58.0,33.0,-100.00,South,178,2.0,4.0,39,0.00,,,-99.99,153.000000,,2013-11-01 00:42:00,
2013-10-31 17:52:00,58.0,33.0,-100.00,South,178,2.0,4.0,39,0.00,,,-99.99,153.000000,,2013-11-01 00:52:00,
2013-10-31 18:22:00,51.0,30.0,-100.00,ESE,123,1.0,5.0,44,0.00,,,-99.99,22.000000,,2013-11-01 01:22:00,
2013-10-31 18:32:00,51.0,30.0,-100.00,ESE,123,1.0,5.0,44,0.00,,,-99.99,22.000000,,2013-11-01 01:32:00,
2013-10-31 18:42:00,51.0,30.0,-100.00,ESE,123,1.0,5.0,44,0.00,,,-99.99,22.000000,,2013-11-01 01:42:00,
2013-10-31 18:52:00,51.0,30.0,-100.00,ESE,123,1.0,5.0,44,0.00,,,-99.99,22.000000,,2013-11-01 01:52:00,
2013-10-31 19:22:00,48.0,32.0,-100.00,NNW,327,2.0,4.0,53,0.00,,,-99.99,0.000000,,2013-11-01 02:22:00,
2013-10-31 19:32:00,48.0,32.0,-100.00,NNW,327,2.0,4.0,53,0.00,,,-99.99,0.000000,,2013-11-01 02:32:00,
2013-10-31 19:42:00,48.0,32.0,-100.00,NNW,327,2.0,4.0,53,0.00,,,-99.99,0.000000,,2013-11-01 02:42:00,
2013-10-31 19:52:00,48.0,32.0,-100.00,NNW,327,2.0,4.0,53,0.00,,,-99.99,0.000000,,2013-11-01 02:52:00,
2013-10-31 20:22:00,45.0,31.0,-100.00,East,85,2.0,6.0,57,0.00,,,-99.99,0.000000,,2013-11-01 03:22:00,
2013-10-31 20:33:00,45.0,31.0,-100.00,East,85,2.0,6.0,57,0.00,,,-99.99,0.000000,,2013-11-01 03:33:00,
2013-10-31 20:44:00,45.0,31.0,-100.00,East,85,2.0,6.0,57,0.00,,,-99.99,0.000000,,2013-11-01 03:44:00,
2013-10-31 20:54:00,45.0,31.0,-100.00,East,85,2.0,6.0,57,0.00,,,-99.99,0.000000,,2013-11-01 03:54:00,
2013-10-31 21:24:00,41.0,31.0,-100.00,ENE,72,2.0,7.0,66,0.00,,,-99.99,0.000000,,2013-11-01 04:24:00,
2013-10-31 21:34:00,41.0,31.0,-100.00,ENE,72,2.0,7.0,66,0.00,,,-99.99,0.000000,,2013-11-01 04:34:00,
2013-10-31 21:43:00,41.0,31.0,-100.00,ENE,72,2.0,7.0,66,0.00,,,-99.99,0.000000,,2013-11-01 04:43:00,
2013-10-31 21:54:00,41.0,31.0,-100.00,ENE,72,2.0,7.0,66,0.00,,,-99.99,0.000000,,2013-11-01 04:54:00,
2013-10-31 22:23:00,38.0,28.0,-100.00,South,180,2.0,6.0,66,0.00,,,-99.99,0.000000,,2013-11-01 05:23:00,
2013-10-31 22:33:00,38.0,28.0,-100.00,South,180,2.0,6.0,66,0.00,,,-99.99,0.000000,,2013-11-01 05:33:00,
2013-10-31 22:42:00,38.0,28.0,-100.00,South,180,2.0,6.0,66,0.00,,,-99.99,0.000000,,2013-11-01 05:42:00,
2013-10-31 22:53:00,38.0,28.0,-100.00,South,180,2.0,6.0,66,0.00,,,-99.99,0.000000,,2013-11-01 05:53:00,
2013-10-31 23:21:00,37.0,29.0,-100.00,NW,325,1.0,6.0,72,0.00,,,-99.99,0.000000,,2013-11-01 06:21:00,
2013-10-31 23:32:00,37.0,29.0,-100.00,NW,325,1.0,6.0,72,0.00,,,-99.99,0.000000,,2013-11-01 06:32:00,
2013-10-31 23:42:00,37.0,29.0,-100.00,NW,325,1.0,6.0,72,0.00,,,-99.99,0.000000,,2013-11-01 06:42:00,
2013-10-31 23:52:00,37.0,29.0,-100.00,NW,325,1.0,6.0,72,0.00,,,-99.99,0.000000,,2013-11-01 06:52:00,